Regional Weather Roundup
Issued by NWS

Home | Current Version | Previous Version | Text Only | Print | Product List | Glossary Off
Versions: 1 2 3 4 5 6 7 8 9 10 11 12 13 14 15 16 17 18 19 20 21 22 23 24 25 26 27 28 29 30 31 32 33 34 35 36 37 38 39 40 41 42 43 44 45 46 47 48 49 50

571
ASUS45 KBOU 260510
RWRCO

WEATHER ROUNDUP FOR COLORADO
NATIONAL WEATHER SERVICE PUEBLO CO
1100 PM MDT WED APR 25 2018

NOTE: "FAIR" INDICATES FEW OR NO CLOUDS BELOW 12000 FEET WITH NO
SIGNIFICANT WEATHER AND/OR OBSTRUCTIONS TO VISIBILITY.

COZ001>005-013-030-031-260600-
...NORTHWEST COLORADO...

CITY           SKY/WX    TMP DP  RH WIND       PRES   REMARKS
CRAIG          MOCLDY    41  29  62 SE6       30.12R
HAYDEN         MOCLDY    44  24  45 NE6       30.14R
MEEKER         MOCLDY    41  28  60 E5        30.13F
RABBIT EARS PA NOT AVBL
STEAMBOAT SPGS FAIR      43  20  40 CALM      30.13F
WALDEN         FAIR      41  10  28 SE5       30.16F
$$

COZ006>008-011-260600-
...WEST CENTRAL VALLEYS...

CITY           SKY/WX    TMP DP  RH WIND       PRES   REMARKS
GRAND JUNCTION MOCLDY    50  11  20 E3        30.07F
MONTROSE       MOCLDY    49  15  25 SE13      30.15F
EAGLE          CLEAR     45  13  27 E10       30.15F
RIFLE          PTCLDY    49  16  26 CALM      30.10S
DELTA          NOT AVBL
NUCLA          FAIR      52   0  11 E10       30.18F
$$

COZ017>023-064>068-260600-
...SOUTHWEST COLORADO...

CITY           SKY/WX    TMP DP  RH WIND       PRES   REMARKS
DURANGO        PTCLDY    49   0  13 NW5       30.14F
CORTEZ         CLEAR     42   4  20 NE9       30.15F
PAGOSA SPRINGS FAIR      43   4  20 N3        30.19F
TELLURIDE      MOCLDY    42   9  25 SE3       30.31S
WOLF CREEK PAS PTCLDY    32   1  27 S12G20    30.40F WCI  23
$$

COZ009-010-012-014-032>034-037-058>063-260600-
...CENTRAL COLORADO...

CITY           SKY/WX    TMP DP  RH WIND       PRES   REMARKS
ASPEN          CLEAR     37  19  48 S9        30.19F
BUENA VISTA    FAIR      42  13  30 NW8       30.17F
COPPER MTN     NOT AVBL
BERTHOUD PASS  FAIR      28  18  64 NW33G40   30.29F WCI  12
COTTONWOOD PAS CLEAR     46  -2  13 W3        30.25F
GUNNISON       PTCLDY    41  10  28 N9        30.20S
KREMMLING      CLEAR     50  19  29 CALM      30.16S
LEADVILLE      CLEAR     34  10  37 NE3       30.25F
MONARCH PASS   PTCLDY    34   0  23 W29       30.43F WCI  20
SALIDA         FAIR      47  16  28 S9        30.23R
SUNLIGHT       CLEAR     32   7  34 SW14G21   30.34F WCI  22
WILKERSON PASS MOCLDY    34   3  27 W6        30.32F WCI  29
$$

COZ069>075-260600-
...SAN LUIS VALLEY/SANGRE DE CRISTO MOUNTAINS...

CITY           SKY/WX    TMP DP  RH WIND       PRES   REMARKS
ALAMOSA        CLEAR     45  10  24 W8        30.13S
DEL NORTE      FAIR      49   7  18 W9        30.17S
LA VETA PASS   CLEAR     41  14  33 S15G29    30.34F
SAGUACHE       NOT AVBL
$$

COZ035-036-038>040-260600-
...NORTHERN COLORADO FRONT RANGE...

CITY           SKY/WX    TMP DP  RH WIND       PRES   REMARKS
DENVER INTL AP CLOUDY    54  26  34 SW17      30.00F
DMNS CITY PARK NOT AVBL
AURORA         PTCLDY    53  25  33 S20       30.01F
FRONT RANGE AP FAIR      53  28  39 S12G20    30.00F
ERIE MUNI ARPT FAIR      45  34  67 CALM      30.05F
BOULDER MUN AP FAIR      52  28  40 S3        30.00F
CENTENNIAL     MOCLDY    52  25  35 S14       30.03S
BROOMFIELD     MOCLDY    52  27  37 CALM      30.01F
LOVELAND       MOCLDY    50  27  40 NE6       29.99F
LONGMONT       FAIR      52  32  46 W6        30.00F
$$

COZ041-046-047-076>085-087-088-260600-
...PIKES PEAK/PALMER DIVIDE AND SOUTHERN FOOTHILLS...

CITY           SKY/WX    TMP DP  RH WIND       PRES   REMARKS
COLO. SPRINGS  PTCLDY    44  27  51 SE10      30.10F
A. F. ACADEMY  CLEAR     44  24  45 CALM      30.10F
SCHRIEVER AFB  NOT AVBL
CHEYENNE MTN   NOT AVBL
ELLICOTT         N/A    N/A N/A N/A S7        30.08F
FALCON         FAIR      39  25  56 SW6       30.13F
FORT CARSON    CLEAR     45  27  48 S12       30.08F
LIMON          PTCLDY    44  31  60 S7        30.05F
MONUMENT HILL  PTCLDY    41  23  48 S13G18    30.11F
CANON CITY     FAIR      46  32  57 NW8       30.08F
WALSENBURG     FAIR      41  28  60 SW9       30.06F
TRINIDAD       CLEAR     43  21  41 NW3       30.08F
$$

COZ042>045-048>051-090-091-260600-
...NORTHEAST COLORADO...

CITY           SKY/WX    TMP DP  RH WIND       PRES   REMARKS
GREELEY ARPT   MOCLDY    45  26  47 NE5       29.99F
AKRON          MOCLDY    45  31  58 S12       29.99F
BURLINGTON     CLEAR     39  32  76 S15       30.03F
WRAY           FAIR      45  32  61 SW6       29.99F
YUMA           NOT AVBL
STERLING       NOT AVBL
HOLYOKE        FAIR      46  34  61 SW8       29.98F
FORT MORGAN    FAIR      45  22  39 S3        29.99F
$$

COZ086-089-092>099-260600-
...SOUTHEAST COLORADO...

CITY           SKY/WX    TMP DP  RH WIND       PRES   REMARKS
PUEBLO         CLEAR     45  31  58 NE5       30.06F
LA JUNTA       CLEAR     49  32  52 S7        30.04F
LAMAR          CLEAR     43  33  68 SW8       30.04F
SPRINGFIELD      N/A     35  29  78 SW8       30.08F WCI  29
$$





USA.gov is the U.S. government's official web portal to all federal, state and local government web resources and services.